Change the Weather History Date:

Friday, March 1, 2013

  Actual Average Record
Temperature  
Mean Temperature 26 °F -  
Max Temperature 33 °F 51 °F 80 °F (1972)
Min Temperature 18 °F 26 °F -7 °F (1962)
Degree Days  
Heating Degree Days 40    
Moisture  
Dew Point 16 °F    
Average Humidity 63    
Maximum Humidity 82    
Minimum Humidity 44    
Precipitation  
Precipitation 0.00 in - - ()
Sea Level Pressure  
Sea Level Pressure 30.28 in    
Wind  
Wind Speed 14 mph (North)    
Max Wind Speed 21 mph    
Max Gust Speed 26 mph    
Visibility 10 miles    
Events Snow    
Averages and records for this station are not official NWS values.
T = Trace of Precipitation, MM = Missing Value Source: NWS Daily Summary

Daily Weather History Graph

Daily Weather History Graph

Search for Another Location

Airport or City:

Trip Planner

Search our weather history database for the weather conditions in past years. The results will help you decide how hot, cold, wet, or windy it might be!

Date:

Astronomy

Mar. 01, 2013 Rise Set
Actual Time 7:00 AM CST 6:18 PM CST
Civil Twilight 6:32 AM CST 6:46 PM CST
Nautical Twilight 6:01 AM CST 7:17 PM CST
Astronomical Twilight 5:29 AM CST 7:49 PM CST
Moon 10:54 PM CST (3/1) 8:47 AM CST (3/1)
Length of Visible Light 12h 13m
Length of Day
11h 18m
Waning Gibbous, 83% of the Moon is Illuminated
Mar 1
Waning Gibbous
Mar 4
Last Quarter
Mar 11
New
Mar 19
First Quarter
Mar 27
Full

Hourly Weather History & Observations

Time (CST) Temp. Windchill Dew Point Humidity Pressure Visibility Wind Dir Wind Speed Gust Speed Precip Events Conditions
12:15 AM 28.2 °F 16.3 °F 19.9 °F 71% 30.22 in 10.0 mi NNW 16.1 mph - N/A   Overcast
12:35 AM 28.2 °F 16.3 °F 19.9 °F 71% 30.22 in 10.0 mi North 16.1 mph 19.6 mph N/A   Overcast
12:55 AM 28.0 °F 16.5 °F 20.1 °F 72% 30.22 in 10.0 mi North 15.0 mph - N/A   Overcast
1:15 AM 28.0 °F 18.1 °F 19.9 °F 72% 30.22 in 10.0 mi North 11.5 mph - N/A   Overcast
1:35 AM 28.0 °F 17.0 °F 20.1 °F 72% 30.23 in 10.0 mi North 13.8 mph - N/A   Overcast
1:55 AM 28.0 °F 18.6 °F 19.8 °F 71% 30.24 in 10.0 mi North 10.4 mph - N/A   Overcast
2:15 AM 28.0 °F 16.5 °F 19.9 °F 72% 30.23 in 10.0 mi North 15.0 mph - N/A   Overcast
2:35 AM 27.9 °F 16.3 °F 19.6 °F 71% 30.23 in 10.0 mi North 15.0 mph - N/A   Overcast
2:55 AM 27.5 °F 15.9 °F 19.2 °F 71% 30.23 in 10.0 mi North 15.0 mph - N/A   Overcast
3:15 AM 26.6 °F 15.7 °F 19.4 °F 74% 30.22 in 10.0 mi North 12.7 mph - N/A   Overcast
3:35 AM 27.0 °F 16.1 °F 18.9 °F 72% 30.22 in 10.0 mi North 12.7 mph 18.4 mph N/A   Overcast
3:55 AM 27.0 °F 14.3 °F 18.9 °F 72% 30.22 in 10.0 mi North 17.3 mph 20.7 mph N/A   Overcast
4:15 AM 26.8 °F 15.9 °F 18.7 °F 72% 30.23 in 10.0 mi North 12.7 mph - N/A   Overcast
4:35 AM 26.6 °F 15.7 °F 18.9 °F 73% 30.23 in 10.0 mi North 12.7 mph - N/A   Overcast
4:55 AM 26.6 °F 16.8 °F 19.4 °F 74% 30.23 in 10.0 mi North 10.4 mph - N/A   Overcast
5:15 AM 26.6 °F 18.2 °F 19.4 °F 74% 30.24 in 10.0 mi North 8.1 mph - N/A   Overcast
5:35 AM 26.6 °F 17.5 °F 19.4 °F 74% 30.24 in 10.0 mi North 9.2 mph - N/A   Overcast
5:55 AM 26.6 °F 18.2 °F 18.9 °F 73% 30.24 in 10.0 mi North 8.1 mph - N/A   Overcast
6:15 AM 26.6 °F 19.1 °F 19.0 °F 73% 30.24 in 10.0 mi North 6.9 mph - N/A   Overcast
6:35 AM 26.6 °F 17.5 °F 19.0 °F 73% 30.24 in 10.0 mi North 9.2 mph - N/A   Overcast
6:55 AM 26.6 °F 16.8 °F 19.4 °F 74% 30.24 in 10.0 mi North 10.4 mph - N/A   Overcast
7:15 AM 26.6 °F 13.4 °F 18.0 °F 70% 30.25 in 10.0 mi North 18.4 mph 25.3 mph N/A   Overcast
7:35 AM 25.7 °F 13.1 °F 16.5 °F 68% 30.26 in 10.0 mi North 16.1 mph 21.9 mph N/A   Overcast
7:55 AM 25.7 °F 12.3 °F 16.0 °F 67% 30.27 in 10.0 mi North 18.4 mph - N/A   Overcast
8:15 AM 25.7 °F 12.7 °F 14.9 °F 64% 30.28 in 10.0 mi North 17.3 mph - N/A   Overcast
8:35 AM 26.1 °F 13.1 °F 15.6 °F 65% 30.28 in 7.0 mi NNW 17.3 mph 21.9 mph N/A Snow Light Snow
8:55 AM 26.6 °F 12.7 °F 14.0 °F 59% 30.28 in 10.0 mi North 20.7 mph - N/A   Overcast
9:15 AM 27.1 °F 14.1 °F 15.1 °F 60% 30.28 in 10.0 mi North 18.4 mph 23.0 mph N/A   Overcast
9:35 AM 27.3 °F 14.8 °F 15.1 °F 60% 30.28 in 10.0 mi NNW 17.3 mph 21.9 mph N/A   Overcast
9:55 AM 27.7 °F 14.5 °F 15.3 °F 60% 30.28 in 10.0 mi North 19.6 mph - N/A   Overcast
10:15 AM 28.8 °F 16.2 °F 14.5 °F 55% 30.29 in 10.0 mi North 18.4 mph - N/A   Overcast
10:35 AM 29.1 °F 17.1 °F 15.3 °F 56% 30.29 in 10.0 mi NNW 17.3 mph 24.2 mph N/A   Overcast
10:55 AM 28.4 °F 16.2 °F 15.8 °F 59% 30.29 in 10.0 mi North 17.3 mph - N/A   Overcast
11:15 AM 29.3 °F 17.0 °F 15.6 °F 57% 30.29 in 10.0 mi North 18.4 mph 25.3 mph N/A   Overcast
11:35 AM 29.3 °F 17.0 °F 16.0 °F 58% 30.29 in 10.0 mi North 18.4 mph 24.2 mph N/A   Overcast
11:55 AM 30.2 °F 18.1 °F 15.8 °F 55% 30.29 in 10.0 mi North 18.4 mph 21.9 mph N/A   Overcast
12:15 PM 29.8 °F 18.0 °F 14.7 °F 53% 30.29 in 10.0 mi North 17.3 mph 24.2 mph N/A   Overcast
12:35 PM 30.6 °F 21.2 °F 14.0 °F 50% 30.29 in 10.0 mi North 11.5 mph 21.9 mph N/A   Overcast
12:55 PM 30.6 °F 20.7 °F 14.5 °F 51% 30.28 in 10.0 mi North 12.7 mph 24.2 mph N/A   Overcast
1:15 PM 30.2 °F 18.5 °F 15.8 °F 55% 30.28 in 10.0 mi North 17.3 mph - N/A   Overcast
1:35 PM 30.9 °F 20.2 °F 14.5 °F 51% 30.28 in 10.0 mi North 15.0 mph 26.5 mph N/A   Overcast
1:55 PM 31.8 °F 21.8 °F 13.8 °F 47% 30.27 in 10.0 mi North 13.8 mph 24.2 mph N/A   Overcast
2:15 PM 32.2 °F 21.1 °F 14.5 °F 48% 30.27 in 10.0 mi North 17.3 mph 21.9 mph N/A   Overcast
2:35 PM 32.9 °F 22.8 °F 14.0 °F 46% 30.27 in 10.0 mi NNW 15.0 mph - N/A   Overcast
2:55 PM 32.9 °F 22.4 °F 14.0 °F 46% 30.27 in 10.0 mi North 16.1 mph 19.6 mph N/A   Overcast
3:15 PM 32.5 °F 22.3 °F 13.6 °F 46% 30.27 in 10.0 mi North 15.0 mph - N/A   Mostly Cloudy
3:35 PM 33.6 °F 22.6 °F 14.2 °F 45% 30.27 in 10.0 mi North 18.4 mph - N/A   Mostly Cloudy
3:55 PM 33.8 °F 23.9 °F 13.6 °F 44% 30.27 in 10.0 mi North 15.0 mph 20.7 mph N/A   Mostly Cloudy
4:15 PM 33.4 °F 23.1 °F 14.2 °F 45% 30.27 in 10.0 mi North 16.1 mph 23.0 mph N/A   Mostly Cloudy
4:55 PM 32.9 °F 23.2 °F 14.9 °F 48% 30.27 in 10.0 mi North 13.8 mph - N/A   Scattered Clouds
5:15 PM 32.2 °F 21.8 °F 14.4 °F 48% 30.29 in 10.0 mi NNE 15.0 mph 23.0 mph N/A   Scattered Clouds
5:35 PM 32.0 °F 22.1 °F 15.1 °F 50% 30.30 in 10.0 mi North 13.8 mph - N/A   Mostly Cloudy
5:55 PM 31.5 °F 20.1 °F 15.3 °F 51% 30.30 in 10.0 mi North 17.3 mph - N/A   Mostly Cloudy
6:15 PM 31.1 °F 21.9 °F 16.3 °F 54% 30.31 in 10.0 mi North 11.5 mph - N/A   Mostly Cloudy
6:35 PM 30.0 °F 20.0 °F 16.7 °F 58% 30.31 in 10.0 mi NNE 12.7 mph - N/A   Overcast
6:55 PM 29.3 °F 19.6 °F 16.7 °F 59% 30.32 in 10.0 mi NNE 11.5 mph - N/A   Overcast
7:15 PM 28.9 °F 19.2 °F 16.2 °F 59% 30.32 in 10.0 mi NNE 11.5 mph - N/A   Overcast
7:35 PM 28.4 °F 17.5 °F 15.6 °F 59% 30.32 in 10.0 mi North 13.8 mph - N/A   Overcast
7:55 PM 28.4 °F 18.0 °F 15.6 °F 59% 30.32 in 10.0 mi NNE 12.7 mph 16.1 mph N/A   Overcast
8:15 PM 27.9 °F 18.4 °F 15.6 °F 60% 30.33 in 10.0 mi North 10.4 mph - N/A   Overcast
8:35 PM 27.3 °F 17.7 °F 15.4 °F 61% 30.33 in 10.0 mi North 10.4 mph - N/A   Mostly Cloudy
8:55 PM 26.6 °F 16.8 °F 15.6 °F 63% 30.33 in 10.0 mi North 10.4 mph - N/A   Mostly Cloudy
9:15 PM 26.1 °F 16.2 °F 15.6 °F 65% 30.34 in 10.0 mi North 10.4 mph - N/A   Scattered Clouds
9:35 PM 25.2 °F 17.3 °F 15.3 °F 66% 30.34 in 10.0 mi North 6.9 mph - N/A   Scattered Clouds
9:55 PM 21.7 °F 12.3 °F 14.5 °F 74% 30.34 in 10.0 mi North 8.1 mph - N/A   Clear
10:15 PM 21.0 °F 13.4 °F 15.4 °F 79% 30.34 in 10.0 mi North 5.8 mph - N/A   Mostly Cloudy
10:35 PM 19.9 °F 11.1 °F 14.7 °F 80% 30.34 in 10.0 mi North 6.9 mph - N/A   Mostly Cloudy
10:55 PM 18.9 °F 10.8 °F 14.0 °F 81% 30.35 in 10.0 mi North 5.8 mph - N/A   Scattered Clouds
11:15 PM 19.0 °F 11.1 °F 14.4 °F 82% 30.35 in 10.0 mi North 5.8 mph - N/A   Mostly Cloudy
11:35 PM 18.5 °F 9.3 °F 13.8 °F 82% 30.35 in 10.0 mi North 6.9 mph - N/A   Scattered Clouds
11:55 PM 18.9 °F - 13.6 °F 80% 30.34 in 10.0 mi Calm Calm - N/A   Clear